Tracking 35237 objects as of 5-Sep-2026
HD Live streaming from Space Station
objects crossing your sky now

COSMOS 1210 DEB


COSMOS 1210 DEB is no longer on orbit


NORAD ID: 11999
Int'l Code: 1980-076E
Launch date: September 19, 1980
Source: Commonwealth of Independent States (former USSR) (CIS)
Launch site: PLESETSK MISSILE AND SPACE COMPLEX (PKMTR)
Decay date: 1980-10-29

Note: This is SATELLITE DEBRIS
Your satellite tracking list
Your tracking list is empty




NASA's NSSDC Master Catalog

Two Line Element Set (TLE):
1 11999U 80076  E 80300.02838698  .04240157 -10173-4 +89664-4 0  9992
2 11999 082.3206 135.3227 0032672 264.7721 094.9955 16.36652043005871
Source of the keplerian elements: AFSPC